Weather History for La Crosse, WI

Change the Weather History Date:

Wednesday, March 6, 2013

  Actual Average Record
Temperature  
Mean Temperature 18 °F 30 °F  
Max Temperature 30 °F 39 °F 74 °F (2000)
Min Temperature 6 °F 21 °F -16 °F (1890)
Degree Days  
Heating Degree Days 47 35  
Month to date heating degree days 263 216  
Since 1 July heating degree days 5592 5725  
Cooling Degree Days 0 0  
Month to date cooling degree days 0 0  
Year to date cooling degree days 0 0  
Moisture  
Dew Point 15 °F    
Average Humidity 75    
Maximum Humidity 92    
Minimum Humidity 58    
Precipitation  
Precipitation T in 0.05 in 0.91 in (1874)
Month to date precipitation 0.45 0.33  
Year to date precipitation 2.85 2.50  
Snow  
Snow T in 0.40 in 7.10 in (1995)
Month to date snowfall 7.8 1.9  
Since 1 July snowfall 47.8 36.4  
Snow Depth 12.00 in    
Sea Level Pressure  
Sea Level Pressure 30.36 in    
Wind  
Wind Speed 9 mph (NW)    
Max Wind Speed 18 mph    
Max Gust Speed 21 mph    
Visibility 10 miles    
Events      
T = Trace of Precipitation, MM = Missing Value Source: NWS Daily Summary

Daily Weather History Graph

Daily Weather History Graph

Search for Another Location

Airport:

Trip Planner

Search our weather history database for the weather conditions in past years. The results will help you decide how hot, cold, wet, or windy it might be!

Date:

Astronomy

Mar. 06, 2013 Rise Set
Actual Time 6:32 AM CST 6:00 PM CST
Civil Twilight 6:04 AM CST 6:29 PM CST
Nautical Twilight 5:30 AM CST 7:02 PM CST
Astronomical Twilight 4:57 AM CST 7:36 PM CST
Moon 2:50 AM CST (3/6) 12:34 PM CST (3/6)
Length of Visible Light 12h 25m
Length of Day
11h 27m
Waning Crescent, 29% of the Moon is Illuminated
Mar 6
Waning Crescent
Mar 11
New
Mar 19
First Quarter
Mar 27
Full
Apr 2
Last Quarter

Hourly Weather History & Observations

Time (CST) Temp. Windchill Dew Point Humidity Pressure Visibility Wind Dir Wind Speed Gust Speed Precip Events Conditions
12:53 AM 18.0 °F 9.8 °F 15.1 °F 88% 30.26 in 10.0 mi NW 5.8 mph - N/A   Clear
1:17 AM 19.4 °F 7.2 °F 15.8 °F 86% 30.23 in 10.0 mi NNW 11.5 mph - N/A   Mostly Cloudy
1:53 AM 24.1 °F 12.0 °F 19.0 °F 81% 30.29 in 10.0 mi NNW 13.8 mph - N/A   Overcast
2:53 AM 25.0 °F 12.6 °F 19.0 °F 78% 30.30 in 10.0 mi NNW 15.0 mph - N/A   Overcast
3:53 AM 24.1 °F 12.0 °F 19.0 °F 81% 30.32 in 10.0 mi NNW 13.8 mph - N/A   Overcast
4:53 AM 24.1 °F 12.0 °F 19.0 °F 81% 30.34 in 10.0 mi NNW 13.8 mph - N/A   Overcast
5:53 AM 24.1 °F 13.1 °F 18.0 °F 77% 30.35 in 10.0 mi NW 11.5 mph - N/A   Overcast
6:53 AM 24.1 °F 12.5 °F 18.0 °F 77% 30.37 in 10.0 mi NNW 12.7 mph - N/A   Overcast
7:53 AM 24.1 °F 12.5 °F 18.0 °F 77% 30.39 in 10.0 mi NW 12.7 mph - N/A   Overcast
8:53 AM 24.1 °F 12.0 °F 17.1 °F 75% 30.40 in 10.0 mi NW 13.8 mph - N/A   Overcast
9:53 AM 24.1 °F 11.0 °F 17.1 °F 75% 30.41 in 10.0 mi NNW 16.1 mph - N/A   Overcast
10:53 AM 25.0 °F 13.6 °F 16.0 °F 69% 30.41 in 10.0 mi North 12.7 mph - N/A   Overcast
11:53 AM 26.1 °F 18.4 °F 16.0 °F 66% 30.41 in 10.0 mi North 6.9 mph - N/A   Overcast
12:53 PM 27.0 °F 18.0 °F 16.0 °F 63% 30.40 in 10.0 mi WNW 9.2 mph - N/A   Mostly Cloudy
1:28 PM 28.4 °F 23.3 °F 15.8 °F 59% 30.34 in 10.0 mi WNW 4.6 mph - N/A   Scattered Clouds
1:53 PM 28.9 °F 20.4 °F 16.0 °F 58% 30.38 in 10.0 mi NW 9.2 mph - N/A   Partly Cloudy
2:53 PM 30.0 °F 22.4 °F 17.1 °F 59% 30.36 in 10.0 mi NW 8.1 mph - N/A   Clear
3:53 PM 28.9 °F 20.4 °F 16.0 °F 58% 30.36 in 10.0 mi NW 9.2 mph - N/A   Clear
4:53 PM 27.0 °F 18.7 °F 15.1 °F 61% 30.35 in 10.0 mi NW 8.1 mph - N/A   Clear
5:53 PM 24.1 °F 16.0 °F 12.9 °F 62% 30.37 in 10.0 mi WNW 6.9 mph - N/A   Clear
6:53 PM 19.0 °F 12.3 °F 12.0 °F 74% 30.38 in 10.0 mi NNW 4.6 mph - N/A   Clear
7:53 PM 14.0 °F - 9.0 °F 80% 30.40 in 10.0 mi Calm Calm - N/A   Clear
8:53 PM 16.0 °F - 12.0 °F 84% 30.40 in 10.0 mi Calm Calm - N/A   Clear
9:53 PM 16.0 °F - 12.9 °F 88% 30.40 in 10.0 mi Calm Calm - N/A   Clear
10:53 PM 9.0 °F 0.6 °F 6.1 °F 88% 30.40 in 10.0 mi NNW 4.6 mph - N/A   Clear
11:53 PM 9.0 °F - 6.1 °F 88% 30.42 in 2.5 mi Calm Calm - N/A   Clear